Regional Weather Roundup
Issued by NWS

Home | Current Version | Previous Version | Text Only | Print | Product List | Glossary On
Versions: 1 2 3 4 5 6 7 8 9 10 11 12 13 14 15 16 17 18 19 20 21 22 23 24 25 26 27 28 29 30 31 32 33 34 35 36 37 38 39 40 41 42 43 44 45 46 47
000
ASUS45 KBOU 201007
RWRCO

WEATHER ROUNDUP FOR COLORADO
NATIONAL WEATHER SERVICE DENVER/BOULDER CO
400 AM MDT SAT SEP 20 2014

NOTE: "FAIR" INDICATES FEW OR NO CLOUDS BELOW 12000 FEET WITH NO
SIGNIFICANT WEATHER AND/OR OBSTRUCTIONS TO VISIBILITY.

COZ001>005-013-030-031-201100-
...NORTHWEST COLORADO...

CITY           SKY/WX    TMP DP  RH WIND       PRES   REMARKS
CRAIG          CLEAR     45  41  86 E5        30.25R
HAYDEN         CLEAR     48  39  71 SE9       30.26R
MEEKER         CLEAR     49  42  77 S5        30.26R
MOUNT WERNER   NOT AVBL
STEAMBOAT SPGS CLEAR     47  42  82 CALM      30.28S
WALDEN         CLEAR     37  34  87 SE5       30.34S
$$

COZ006>008-011-201100-
...WEST CENTRAL VALLEYS...

CITY           SKY/WX    TMP DP  RH WIND       PRES   REMARKS
GRAND JUNCTION CLEAR     62  44  51 SE5       30.09R
MONTROSE       CLEAR     59  43  55 SE9       30.18S
EAGLE          CLEAR     52  43  71 CALM      30.29R
RIFLE          CLEAR     54  44  69 CALM      30.18R
DELTA          CLEAR     59  43  54 E6        30.14R
NUCLA          CLEAR     55  43  62 E7        30.19S
$$

COZ017>023-064>068-201100-
...SOUTHWEST COLORADO...

CITY           SKY/WX    TMP DP  RH WIND       PRES   REMARKS
DURANGO        CLEAR     51  42  71 CALM      30.18S
CORTEZ         CLEAR     50  45  83 NE7       30.14S
PAGOSA SPRINGS CLEAR     48  41  77 CALM      30.27R
TELLURIDE      NOT AVBL
WOLF CREEK PAS CLEAR     45  32  61 NE12      30.57S
$$

COZ009-010-012-014-032>034-037-058>063-201100-
...CENTRAL COLORADO...

CITY           SKY/WX    TMP DP  RH WIND       PRES   REMARKS
ASPEN          CLEAR     48  39  71 S7        30.32R
BUENA VISTA    CLEAR     53  37  54 CALM      30.33R
COPPER MTN     CLEAR     46  36  66 W10       30.60S
BERTHOUD PASS  FAIR      39  37  93 NW14      30.63S
COTTONWOOD PAS CLEAR     59  34  38 SW8       30.44S
GUNNISON       CLEAR     43  36  75 CALM      30.35R
KREMMLING      CLEAR     43  36  75 CALM      30.33R
LEADVILLE      CLEAR     39  35  86 NE6       30.45S
MONARCH PASS   CLEAR     46  32  57 E6        30.69R
SALIDA         CLEAR     50  39  66 CALM      30.37S
SUNLIGHT       CLEAR     50  41  71 NE6       30.52F
WILKERSON PASS NOT AVBL
$$

COZ069>075-201100-
...SAN LUIS VALLEY/SANGRE DE CRISTO MOUNTAINS...

CITY           SKY/WX    TMP DP  RH WIND       PRES   REMARKS
ALAMOSA        PTCLDY    44  35  70 S6        30.27R
LA VETA PASS   CLEAR     52  43  71 W5        30.46R
SAGUACHE       NOT AVBL
$$

COZ035-036-038>040-201100-
...NORTHERN COLORADO FRONT RANGE...

CITY           SKY/WX    TMP DP  RH WIND       PRES   REMARKS
DENVER INTL AP PTCLDY    62  46  55 SW10      30.13S
DMNS CITY PARK   N/A     61  48  64 S5        30.13R
AURORA         PTCLDY    59  46  62 S6        30.16R
FRONT RANGE AP NOT AVBL
ERIE MUNI ARPT CLEAR     56  48  73 CALM      30.11S
BOULDER MUN AP CLEAR     68  43  40 SW5       30.12R
CENTENNIAL     PTCLDY    58  46  64 CALM      30.16S
BROOMFIELD     CLEAR     61  45  55 SW6       30.15S
FORT COLLINS   CLEAR     57  46  67 CALM      30.14R
LONGMONT       CLEAR     60  50  70 CALM      30.13R
$$

COZ041-046-047-076>085-087-088-201100-
...PIKES PEAK/PALMER DIVIDE AND SOUTHERN FOOTHILLS...

CITY           SKY/WX    TMP DP  RH WIND       PRES   REMARKS
COLO. SPRINGS  PTCLDY    65  44  46 NW13      30.17F
A. F. ACADEMY  CLEAR     54  43  66 N8        30.20S
ELLICOTT       NOT AVBL
FALCON         CLEAR     57  43  59 NW9       30.22S
FORT CARSON    CLEAR     62  43  49 NW9       30.14R
LIMON          CLEAR     54  47  77 N6        30.11R
MONUMENT HILL  CLEAR     50  41  71 W9        30.23S
TRINIDAD       CLEAR     62  55  77 W12       30.12R
$$

COZ042>045-048>051-090-091-201100-
...NORTHEAST COLORADO...

CITY           SKY/WX    TMP DP  RH WIND       PRES   REMARKS
GREELEY ARPT   PTCLDY    57  46  67 NE8       30.12R
AKRON          CLEAR     60  52  74 NW12      30.07R
BURLINGTON     CLEAR     62  59  90 SW9       30.01R
WRAY           CLEAR     61  52  71 CALM      29.98R
STERLING       CLEAR     59  54  82 NW7       30.02R
HOLYOKE        CLEAR     64  54  68 NW8       29.99R
FORT MORGAN    CLEAR     64  47  55 NW10      30.07S
$$

COZ086-089-092>099-201100-
...SOUTHEAST COLORADO...

CITY           SKY/WX    TMP DP  RH WIND       PRES   REMARKS
PUEBLO         CLEAR     61  44  53 S5        30.07R
LA JUNTA       CLEAR     57  54  89 NW5       30.01S
LAMAR          CLEAR     58  56  93 N5        29.98R
SPRINGFIELD      N/A     62  61  96 SW10      30.02S
$$



USA.gov is the U.S. government's official web portal to all federal, state and local government web resources and services.